TimeMDT,TemperatureF,Dew PointF,Humidity,Sea Level PressureIn,VisibilityMPH,Wind Direction,Wind SpeedMPH,Gust SpeedMPH,PrecipitationIn,Events,Conditions,WindDirDegrees,DateUTC
12:53 AM,50.0,28.0,43,29.74,10.0,SSE,4.6,-,N/A,,Partly Cloudy,150,2013-03-21 06:53:00
1:53 AM,46.0,27.0,47,29.73,10.0,Calm,Calm,-,N/A,,Clear,0,2013-03-21 07:53:00
2:53 AM,45.0,27.0,49,29.74,10.0,SSW,5.8,-,N/A,,Clear,210,2013-03-21 08:53:00
3:53 AM,41.0,26.1,55,29.75,10.0,SW,5.8,-,N/A,,Clear,230,2013-03-21 09:53:00
4:53 AM,39.0,25.0,57,29.75,10.0,WNW,3.5,-,N/A,,Clear,290,2013-03-21 10:53:00
5:53 AM,37.9,25.0,60,29.75,10.0,South,6.9,-,N/A,,Clear,170,2013-03-21 11:53:00
6:53 AM,37.0,24.1,59,29.77,10.0,SE,5.8,-,N/A,,Clear,140,2013-03-21 12:53:00
7:53 AM,39.0,23.0,53,29.78,10.0,South,4.6,-,N/A,,Clear,180,2013-03-21 13:53:00
8:53 AM,46.0,24.1,42,29.79,10.0,SW,4.6,-,N/A,,Clear,220,2013-03-21 14:53:00
9:53 AM,50.0,24.1,36,29.80,10.0,NNE,5.8,-,N/A,,Clear,20,2013-03-21 15:53:00
10:53 AM,50.0,26.1,39,29.83,10.0,North,15.0,23.0,N/A,,Clear,10,2013-03-21 16:53:00
11:53 AM,50.0,25.0,38,29.84,10.0,NNE,11.5,17.3,N/A,,Clear,20,2013-03-21 17:53:00
12:53 PM,52.0,24.1,34,29.85,10.0,North,11.5,-,N/A,,Partly Cloudy,360,2013-03-21 18:53:00
1:53 PM,52.0,23.0,32,29.85,10.0,North,10.4,-,N/A,,Clear,360,2013-03-21 19:53:00
2:53 PM,54.0,23.0,30,29.83,10.0,North,11.5,18.4,N/A,,Clear,350,2013-03-21 20:53:00
3:53 PM,52.0,19.9,28,29.83,10.0,NNE,8.1,-,N/A,,Clear,30,2013-03-21 21:53:00
4:53 PM,53.1,19.9,27,29.83,10.0,Variable,6.9,-,N/A,,Clear,0,2013-03-21 22:53:00
5:53 PM,52.0,17.1,25,29.81,10.0,NNE,4.6,-,N/A,,Clear,20,2013-03-21 23:53:00
6:53 PM,51.1,18.0,27,29.82,10.0,North,4.6,-,N/A,,Clear,350,2013-03-22 00:53:00
7:53 PM,45.0,21.0,39,29.82,10.0,NE,3.5,-,N/A,,Clear,50,2013-03-22 01:53:00
8:53 PM,36.0,21.0,55,29.83,10.0,North,5.8,-,N/A,,Clear,350,2013-03-22 02:53:00
9:53 PM,36.0,21.0,55,29.81,10.0,NNE,4.6,-,N/A,,Clear,20,2013-03-22 03:53:00
10:53 PM,34.0,21.0,59,29.82,10.0,North,5.8,-,N/A,,Clear,350,2013-03-22 04:53:00
11:53 PM,33.1,19.0,56,29.83,10.0,Calm,Calm,-,N/A,,Clear,0,2013-03-22 05:53:00